DW3886 Weather Reports


time (UTC)temp
C
wind
direction
speed
KPH
gust
KPH
rain 1hr
cm
rain 24hr
cm
rain mn
cm
humidity
%
barometer
mb
20260502163517 12 225 8.0 12.9 0.00 0.00 0.00 46 1021.3
20260502162517 12 270 6.4 12.9 0.00 0.00 0.00 47 1021.4
20260502161558 12 248 4.8 9.7 0.00 0.00 0.00 47 1021.4
20260502160517 12 203 6.4 14.5 0.00 0.00 0.00 46 1021.5
20260502151517 11 248 3.2 9.7 0.00 0.00 0.00 48 1021.8
20260502150517 11 270 3.2 9.7 0.00 0.00 0.00 52 1021.7
20260502130517 6 0.0 3.2 0.00 0.00 0.00 72 1021.7
20260502123517 3 0.0 0.0 0.00 0.00 0.00 77 1021.4
20260502122537 2 0.0 1.6 0.00 0.00 0.00 81 1021.4
20260502121557 1 0.0 0.0 0.00 0.00 0.00 87 1021.2
20260502120517 0 0.0 0.0 0.00 0.00 0.00 88 1020.9
20260502115517 0 0.0 0.0 0.00 0.00 0.00 89 1020.9
20260502114517 0 0.0 0.0 0.00 0.00 0.00 88 1020.7
20260502113537 0 0.0 0.0 0.00 0.00 0.00 87 1020.6
20260502112517 0 0.0 0.0 0.00 0.00 0.00 87 1020.4
20260502111537 0 0.0 0.0 0.00 0.00 0.00 87 1020.4
20260502110517 0 0.0 0.0 0.00 0.00 0.00 87 1020.4
20260502105517 0 0.0 0.0 0.00 0.00 0.00 87 1020.4
20260502104517 0 0.0 0.0 0.00 0.00 0.00 86 1020.5
20260502103517 0 0.0 0.0 0.00 0.00 0.00 85 1020.4
20260502102517 0 0.0 0.0 0.00 0.00 0.00 84 1020.4
20260502101517 0 0.0 0.0 0.00 0.00 0.00 83 1020.2
20260502100517 0 0.0 0.0 0.00 0.00 0.00 83 1020.2
20260502091517 0 0.0 0.0 0.00 0.00 0.00 83 1020.1
20260502090517 1 0.0 1.6 0.00 0.00 0.00 83 1020.1
20260502071517 2 0.0 0.0 0.00 0.00 0.00 79 1020.0
20260502070517 2 0.0 0.0 0.00 0.00 0.00 78 1020.2
20260502065557 2 0.0 0.0 0.00 0.00 0.00 79 1020.2
20260502064517 2 0.0 1.6 0.00 0.00 0.00 78 1020.2
20260502063517 3 0.0 1.6 0.00 0.00 0.00 77 1020.2
20260502062557 3 0.0 0.0 0.00 0.00 0.00 77 1020.2
20260502061557 3 0.0 0.0 0.00 0.00 0.00 75 1020.3
20260502060537 3 0.0 0.0 0.00 0.00 0.00 75 1020.2
20260502055517 3 0.0 1.6 0.00 0.00 0.00 74 1020.2
20260502054517 4 0.0 1.6 0.00 0.00 0.00 73 1020.3
20260502053557 5 0.0 1.6 0.00 0.00 0.00 72 1020.1
20260502052517 5 0.0 1.6 0.00 0.00 0.00 70 1020.0
20260502051517 5 0.0 1.6 0.00 0.00 0.00 70 1020.1
20260502050517 6 0.0 1.6 0.00 0.00 0.00 69 1020.2
20260502045516 6 0.0 3.2 0.00 0.00 0.00 68 1020.1
20260502044516 6 0.0 3.2 0.00 0.00 0.00 69 1020.1
20260502043516 6 0.0 3.2 0.00 0.00 0.00 68 1020.1
20260502042516 7 338 1.6 4.8 0.00 0.00 0.00 66 1020.0
20260502041516 7 338 1.6 3.2 0.00 0.00 0.00 66 1019.8
20260502040516 7 0 1.6 4.8 0.00 0.00 0.00 66 1019.9
20260502035516 7 0.0 0.0 0.00 0.00 0.00 65 1019.9
20260502034515 7 0.0 0.0 0.00 0.00 0.00 63 1019.8
20260502033516 7 0.0 3.2 0.00 0.00 0.00 63 1019.7
20260502032516 8 0.0 3.2 0.00 0.00 0.00 62 1019.7
20260502031536 8 0.0 0.0 0.00 0.00 0.00 61 1019.7
20260502030536 8 0.0 0.0 0.00 0.00 0.00 61 1019.7
20260502025516 8 0.0 0.0 0.00 0.00 0.00 60 1019.6
20260502024536 8 315 1.6 3.2 0.00 0.00 0.00 60 1019.5
20260502023516 8 338 1.6 6.4 0.00 0.00 0.00 59 1019.3
20260502022516 9 0.0 3.2 0.00 0.00 0.00 58 1019.2
20260502021516 9 338 1.6 4.8 0.00 0.00 0.00 57 1019.0
20260502020516 9 315 1.6 4.8 0.00 0.00 0.00 58 1018.8
20260502015516 9 338 1.6 4.8 0.00 0.00 0.00 58 1018.7
20260502014516 10 338 3.2 6.4 0.00 0.00 0.00 58 1018.7
20260502013516 10 315 1.6 4.8 0.00 0.00 0.00 57 1018.5
20260502012516 10 338 1.6 6.4 0.00 0.00 0.00 57 1018.4
20260502011515 10 338 1.6 4.8 0.00 0.00 0.00 56 1018.3
20260502010521 11 338 3.2 9.7 0.00 0.00 0.00 55 1018.2
20260502005536 11 338 3.2 8.0 0.00 0.00 0.00 55 1018.0
20260502004536 11 315 1.6 8.0 0.00 0.00 0.00 53 1017.9
20260502003516 11 338 3.2 6.4 0.00 0.00 0.00 54 1017.7
20260502002616 11 315 1.6 4.8 0.00 0.00 0.00 54 1017.6
20260502001516 11 315 3.2 4.8 0.00 0.00 0.00 52 1017.6
20260502000516 12 338 3.2 8.0 0.00 0.00 0.00 52 1017.5
20260501235516 12 0 1.6 6.4 0.00 0.00 0.00 53 1017.5
20260501234516 12 338 3.2 11.3 0.00 0.00 0.00 50 1017.4
20260501233516 12 0 3.2 9.7 0.00 0.00 0.00 51 1017.4
20260501232515 12 338 4.8 12.9 0.00 0.00 0.00 49 1017.4
20260501231516 12 338 3.2 11.3 0.00 0.00 0.00 51 1017.4
20260501230515 12 315 4.8 11.3 0.00 0.00 0.00 47 1017.4
20260501225516 12 338 3.2 6.4 0.00 0.00 0.00 49 1017.3
20260501224515 13 338 4.8 16.1 0.00 0.00 0.00 47 1017.4
20260501223516 13 338 4.8 11.3 0.00 0.00 0.00 48 1017.5
20260501222515 13 338 3.2 11.3 0.00 0.00 0.00 44 1017.4
20260501221516 14 315 3.2 8.0 0.00 0.00 0.00 48 1017.3
20260501220515 14 315 4.8 12.9 0.00 0.00 0.00 45 1017.4
20260501215536 14 315 3.2 9.7 0.00 0.00 0.00 49 1017.4
20260501214515 14 338 3.2 9.7 0.00 0.00 0.00 49 1017.5
20260501213515 14 0 4.8 12.9 0.00 0.00 0.00 47 1017.5
20260501212516 15 338 4.8 14.5 0.00 0.00 0.00 49 1017.4
20260501211516 14 293 6.4 12.9 0.00 0.00 0.00 42 1017.5
20260501210536 14 0 4.8 12.9 0.00 0.00 0.00 50 1017.5
20260501205516 14 23 3.2 12.9 0.00 0.00 0.00 45 1017.7
20260501204515 15 0 3.2 11.3 0.00 0.00 0.00 49 1017.7
20260501203515 14 315 3.2 8.0 0.00 0.00 0.00 51 1017.7
20260501202516 14 0 3.2 9.7 0.00 0.00 0.00 51 1017.7
20260501201515 14 293 8.0 17.7 0.00 0.00 0.00 45 1017.8
20260501200515 14 315 4.8 11.3 0.00 0.00 0.00 54 1017.9
20260501195515 13 0 3.2 9.7 0.00 0.00 0.00 48 1017.8
20260501194535 13 338 4.8 12.9 0.00 0.00 0.00 51 1017.8
20260501193516 13 338 6.4 16.1 0.00 0.00 0.00 48 1017.8
20260501192516 13 315 4.8 16.1 0.00 0.00 0.00 49 1017.7
20260501191516 12 0 4.8 14.5 0.00 0.00 0.00 55 1017.7
20260501190516 13 315 4.8 12.9 0.00 0.00 0.00 52 1017.5
20260501185516 13 338 3.2 11.3 0.00 0.00 0.00 53 1017.5
20260501184516 13 315 3.2 8.0 0.00 0.00 0.00 52 1017.5
20260501183515 13 338 3.2 11.3 0.00 0.00 0.00 55 1017.4
20260501182535 12 293 4.8 11.3 0.00 0.00 0.00 60 1017.5
20260501181515 12 293 6.4 16.1 0.00 0.00 0.00 54 1017.5